Reflectivity
-11 21 15 3 4 8 -3 -1 -20 -20 -20 -20 -20 -20 -20 -20 -20 -20 -20 -20 -20 -20 -20 -20 -20 -20 -20 -20 -20 -20 -20 -20
12 -20 -20 5 -15 16 -19 -20 -20 -20 -20 -20 -20 -20 -20 -20 -20 -20 -20 -20 -20 -20 -20 -20 -20 -20 -20 -20 -20 -20 -20 -20
-20 -19 -20 -10 1 10 -20 -20 -20 -20 -20 -20 -20 -20 -20 -20 -20 -20 -20 -20 -20 -20 -20 -20 -20 -20 -20 -20 -20 -20 -20 -20
-6 1 10 -14 7 -9 -20 -20 -20 -20 -20 -20 -20 -20 -20 -20 -20 -20 -20 -20 -20 -20 -20 -20 -20 -20 -20 -20 -20 -20 -20 -20
1 -16 12 26 -10 -18 -20 -20 -20 -20 -20 -20 -20 -20 -20 -20 -20 -20 -20 -20 -20 -20 -20 -20 -20 -20 -20 -20 -20 -20 -20 -20
-20 12 -20 -20 -20 -20 -20 -20 -20 -20 -20 -20 -20 -20 -20 -20 -20 -20 -20 -20 -20 -20 -20 -20 -20 -20 -20 -20 -20 -20 -20 -20
-20 -18 -20 -19 -20 -20 -20 -20 -20 -20 -20 -20 -20 -20 -20 -20 -20 -20 -20 -20 -20 -20 -20 -20 -20 -20 -20 -20 -20 -20 -20 -20
-20 -20 -20 -20 -20 -20 -20 -20 -20 -20 -20 -20 -20 -20 -20 -20 -20 -20 -20 -20 -20 -20 -20 -20 -20 -20 -20 -20 -20 -20 -20 -20
-20 -20 -20 -20 -20 -20 -20 -20 -20 -20 -20 -20 -20 -20 -20 -20 -20 -20 -20 -20 -20 -20 -20 -20 -20 -20 -20 -20 -20 -20 -20 -20
-20 -20 -20 -20 -20 -20 -20 -20 -20 -20 -20 -20 -20 -20 -20 -20 -20 -20 -20 -20 -20 -20 -20 -20 -20 -20 -20 -20 -20 -20 -20 -20
-20 -20 -20 -20 -20 -20 -20 -20 -20 -20 -20 -20 -20 -20 -20 -20 -20 -20 -20 -20 -20 -20 -20 -20 -20 -20 -20 -20 -20 -20 -20 -20
-20 -20 -20 -18 11 -20 -20 -20 -20 -20 -20 -20 -20 -20 -20 -20 -20 -20 -20 -20 -20 -20 -20 -20 -20 -20 -20 -20 -20 -20 -20 -20
-20 -20 -20 -20 -20 -20 -20 -20 -20 -20 -20 -20 -20 -20 -20 -20 -20 -20 -20 -20 -20 -20 -20 -20 -20 -20 -20 -20 -20 -20 -20 -20
-20 -20 -20 15 -20 -20 -20 -20 -20 -20 -20 -20 -20 -20 -20 -20 -20 -20 -20 -20 -20 -20 -20 -20 -20 -20 -20 -20 -20 -20 -20 -20
-20 -20 12 -20 -20 -20 -20 -20 -20 -20 -20 -20 -20 -20 -20 -20 -20 -20 -20 -20 -20 -20 -20 -20 -20 -20 -20 -20 -20 -20 -20 -20
-20 7 -18 -20 -20 -20 -20 -20 -20 -20 -20 -20 -20 -20 -20 -20 -20 -20 -20 -20 -20 -20 -20 -20 -20 -20 -20 -20 -20 -20 -20 -20
-20 0 -20 -20 -20 -20 -20 -20 -20 -20 -20 -20 -20 -20 -20 -20 -20 -20 -20 -20 -20 -20 -20 -20 -20 -20 -20 -20 -20 -20 -20 -20
-20 -20 -20 -20 -20 -20 -20 -20 -20 -20 -20 -20 -20 -20 -20 -20 -20 -20 -20 -20 -20 -20 -20 -20 -20 -20 -20 -20 -20 -20 -20 -20
-20 -20 -20 -20 -20 -20 -20 -20 -20 -20 -20 -20 -20 -20 -20 -20 -20 -20 -20 -20 -20 -20 -20 -20 -20 -20 -20 -20 -20 -20 -20 -20
Wind_Speed
7 6 10 6 6 12 11 6 9 8 5 5 4 4 4 3 4 5 7 5 7 5 5 5 5 5 7 7 4 4 2 7
4 3 8 6 9 12 7 9 6 4 2 3 4 3 3 4 5 7 7 6 6 6 4 5 5 5 4 5 3 4 3 10
3 6 5 3 9 8 6 6 5 3 3 3 3 3 2 3 3 5 6 6 6 5 5 4 5 4 6 6 5 4 3 4
3 3 4 2 6 7 6 5 5 5 6 4 3 3 3 4 4 4 5 7 6 6 6 5 5 4 4 4 5 5 3 3
7 9 5 1 6 2 8 6 6 4 4 5 5 3 3 2 2 3 6 11 11 9 7 7 6 4 7 5 5 3 3 4
6 5 5 8 5 4 6 7 7 7 7 6 5 6 3 2 3 7 8 8 10 11 10 9 10 7 7 8 8 7 3 3
2 1 6 7 6 5 7 7 6 6 7 7 8 8 6 6 7 6 6 5 6 10 10 9 8 8 9 8 6 7 6 4
3 4 5 6 7 7 7 7 6 6 7 9 10 9 8 9 7 6 6 5 5 8 8 8 6 6 7 8 7 7 7 7
4 4 5 6 6 7 8 7 7 7 9 9 9 9 6 6 6 4 4 4 3 5 6 6 6 6 7 6 4 5 6 5
5 6 6 6 6 7 8 9 8 8 8 8 9 9 8 6 6 5 4 4 4 6 6 6 6 6 5 6 4 5 4 5
4 5 7 6 7 8 9 8 9 7 8 8 7 7 6 6 5 6 5 4 5 5 6 6 6 6 6 6 5 4 4 3
5 6 6 9 6 7 8 8 8 7 7 6 6 6 6 6 5 4 5 4 5 6 5 6 7 7 6 5 5 6 5 7
7 7 8 6 6 6 7 7 8 6 6 6 6 6 5 6 5 5 5 5 5 5 6 5 6 6 7 5 7 6 9 10
9 8 8 7 5 6 7 6 7 6 6 6 6 5 5 4 4 5 5 5 5 5 5 6 6 7 9 5 7 8 7 9
10 9 8 7 6 6 6 6 6 6 6 6 5 4 3 3 3 4 4 5 5 5 5 5 5 8 7 7 7 7 8 9
12 10 9 8 7 6 6 6 6 6 6 6 4 3 3 2 4 4 4 4 5 5 5 5 5 7 7 9 8 9 10 12
13 12 11 11 9 8 7 7 7 6 6 6 4 3 2 3 3 4 4 4 5 4 4 6 6 7 14 17 15 10 11 12
16 15 13 10 10 9 9 7 6 6 6 5 4 3 3 3 3 4 4 5 5 5 5 5 7 7 16 19 20 10 11 12
13 12 10 9 7 7 7 7 7 6 6 5 4 3 2 2 3 4 4 4 5 6 5 6 6 7 17 20 22 11 11 12
Wind_Direction
6 44 97 86 112 90 94 101 99 95 87 83 75 71 57 46 45 44 42 41 42 45 38 33 26 25 14 7 2 344 336 339
354 281 80 129 97 96 106 114 119 109 105 104 70 61 24 36 37 39 37 35 33 36 31 26 20 32 4 2 332 351 340 353
314 359 317 285 103 100 110 111 128 99 94 103 108 123 84 84 43 38 30 26 24 38 40 25 25 12 11 8 16 342 332 2
195 48 351 339 92 114 112 93 80 82 99 95 89 80 50 35 18 14 7 15 22 29 34 33 20 20 13 0 10 21 342 326
208 140 127 317 56 53 86 80 71 77 78 70 75 87 85 38 20 0 25 30 28 25 29 25 20 14 20 3 360 3 357 352
242 213 159 124 111 98 88 74 56 50 67 82 83 77 72 51 37 42 34 32 32 25 28 25 21 12 13 15 10 10 10 329
45 52 129 110 114 106 89 77 55 54 65 68 75 71 60 60 44 44 30 30 28 23 23 23 21 17 14 5 4 6 1 347
70 69 92 122 130 114 99 91 70 77 80 74 77 76 67 65 56 45 28 26 24 16 19 15 13 5 12 7 8 358 356 355
68 64 68 95 122 117 103 98 93 82 76 73 76 77 72 66 61 57 39 31 29 13 13 6 2 8 13 3 351 345 354 6
76 59 63 72 93 106 106 108 93 79 82 83 76 76 78 74 57 53 41 16 20 15 9 358 355 2 355 345 342 334 357 2
106 89 89 76 84 93 90 90 92 89 84 83 81 77 73 71 60 52 41 14 13 14 7 351 340 354 347 345 336 347 0 333
137 123 112 106 95 101 99 96 98 87 83 86 83 73 68 64 58 48 28 17 12 14 354 352 356 348 337 339 348 348 341 337
144 140 119 112 114 106 109 104 101 100 99 92 85 79 72 62 41 26 30 27 10 357 355 353 349 345 340 342 348 359 339 330
148 149 143 141 134 126 121 120 120 118 108 101 90 84 80 65 33 28 28 20 2 354 354 352 344 347 337 350 342 331 328 325
163 155 158 152 155 141 135 134 136 131 125 117 106 98 97 73 46 42 25 360 2 350 344 339 344 341 322 343 324 323 319 321
170 169 169 164 160 154 158 148 147 149 134 123 122 122 102 69 66 29 1 360 355 335 333 342 341 334 345 332 330 325 322 322
173 176 172 175 171 173 163 160 159 149 139 132 126 121 99 81 58 8 353 345 337 328 332 338 335 338 333 335 336 330 326 321
179 177 179 176 175 172 167 165 149 146 138 135 132 120 83 97 22 2 348 339 330 323 323 322 329 326 331 334 335 329 320 316
178 173 169 167 161 161 146 148 148 146 142 139 127 95 107 96 13 351 331 322 322 318 311 326 323 326 333 335 333 324 316 314